Theta_e
343 347 351 347 347 351 352 355 355 351 350 344 345 349 349 354 353 354 353 351 351 347 344 343 342 340 345 345 344 344 344 345 343 341 340 345 347 347 348 347 350 349 350 349 348 349 348 347 349 351 349 348 349 350 351 351 351 348 347 347 349 349 350 353 354 353 352 350 346 342 340 343 346 349 350 352 353 352 352 352 353 352 352 352 353 352 351 352 351 351 351 351 352 353 351 351 350
340 345 348 345 348 353 355 357 355 347 345 340 345 351 350 355 355 354 353 352 352 347 343 341 340 341 346 345 342 343 345 346 343 342 345 347 347 348 350 350 351 350 351 350 349 350 348 347 348 351 350 349 349 350 351 351 350 348 347 347 348 350 352 354 355 353 352 351 349 346 346 347 348 350 350 352 353 353 352 352 353 352 352 352 352 352 351 351 351 350 348 349 352 353 352 351 349
340 343 345 345 350 354 357 357 351 343 339 339 344 352 353 354 355 354 353 352 350 344 342 341 341 344 345 344 345 345 345 344 343 343 345 347 348 348 350 351 351 351 352 351 350 349 349 348 348 350 350 350 349 348 349 350 349 348 350 350 350 353 354 354 354 353 352 352 350 348 348 348 349 350 350 352 352 352 353 352 353 352 352 352 352 352 351 351 350 349 349 349 350 352 352 350 349
340 342 345 349 354 356 360 358 352 343 338 339 340 351 356 354 355 354 352 349 346 342 341 342 343 346 346 347 346 346 346 344 345 345 345 347 348 349 351 352 352 352 352 352 350 350 350 349 349 350 349 349 348 347 348 350 349 348 351 352 353 355 354 353 353 353 353 353 351 349 349 349 350 350 350 351 351 352 353 352 352 353 352 352 351 351 351 351 350 350 351 349 349 351 350 349 348
341 344 349 351 357 359 360 357 353 345 340 342 341 350 356 353 354 353 351 347 342 341 341 343 347 347 346 348 346 346 345 344 346 347 347 348 349 350 351 352 352 352 352 352 350 350 350 349 349 351 351 349 348 348 349 350 349 351 352 353 354 354 353 352 353 353 353 353 351 350 350 350 351 350 350 351 351 352 354 352 351 352 352 352 351 349 350 350 350 350 350 349 350 351 349 348 347
342 348 352 353 357 357 356 349 346 346 348 351 347 352 354 351 354 351 350 346 343 343 343 346 347 347 346 346 345 345 344 343 346 347 348 349 349 351 351 352 352 352 352 351 350 350 349 349 350 351 352 351 351 351 351 350 349 352 353 354 354 353 353 353 352 353 353 352 351 351 351 351 350 349 350 350 351 352 353 353 351 352 352 351 350 349 349 350 350 349 350 349 351 352 350 349 349
347 352 355 356 357 356 355 347 346 351 353 356 353 353 352 350 352 350 349 346 345 345 346 347 344 346 347 344 345 347 346 345 346 347 348 349 350 351 351 352 351 352 352 351 350 350 349 349 349 351 352 351 352 353 353 352 351 352 352 353 353 352 352 352 352 353 353 352 351 352 352 350 349 349 349 350 351 353 353 353 352 353 353 352 350 350 349 350 350 350 350 350 351 352 352 351 350
352 354 354 358 361 358 355 351 352 356 355 358 357 354 352 351 350 350 350 348 348 347 347 346 344 348 348 345 347 349 349 348 347 348 349 350 351 351 352 352 351 351 351 350 349 350 349 347 348 349 350 351 351 352 353 353 352 351 351 351 352 351 350 351 352 353 352 352 352 353 352 350 350 350 350 351 352 353 353 352 352 352 352 351 350 350 350 350 350 351 351 352 352 352 352 352 351
352 355 355 358 361 358 354 353 355 358 360 360 359 357 353 350 350 351 350 350 349 348 347 345 344 349 349 348 348 348 349 349 348 349 350 350 351 351 351 351 351 351 351 350 349 349 349 347 349 349 350 351 351 351 352 352 351 351 350 350 351 350 349 351 352 353 352 352 353 353 352 351 351 350 350 351 353 353 352 352 352 351 351 351 350 350 351 351 351 351 352 352 352 352 352 351 352
352 355 356 359 357 352 349 351 355 358 362 361 359 358 352 350 350 350 351 351 350 348 348 345 345 348 348 349 348 348 348 349 349 349 350 350 351 351 351 351 350 350 350 349 349 350 349 349 349 350 351 351 350 350 350 350 350 349 350 351 350 349 349 350 351 352 352 352 352 353 352 351 351 351 350 351 352 352 352 353 353 353 352 351 352 352 352 352 351 351 351 351 350 352 353 352 352
354 354 354 357 353 346 345 349 356 360 362 360 359 358 354 351 349 350 351 352 350 349 346 345 348 347 348 349 348 348 349 349 349 349 349 350 351 351 350 350 348 348 350 349 349 350 350 349 349 350 350 349 349 349 348 348 349 348 349 351 350 349 350 350 351 351 352 353 352 353 352 351 351 350 350 350 352 352 352 352 353 353 353 352 353 353 353 352 351 350 350 350 350 352 352 352 351
356 356 356 358 353 348 349 351 356 361 361 358 358 360 356 350 350 352 352 352 350 349 346 346 348 345 348 349 348 348 348 349 350 350 349 350 351 350 350 349 348 348 350 349 350 351 349 349 349 349 348 348 348 348 346 347 348 347 349 350 350 350 350 351 351 351 351 351 351 351 350 351 351 350 350 349 351 352 351 352 353 352 352 352 352 352 352 352 351 350 350 352 352 352 352 352 351
355 356 357 358 355 355 355 354 359 361 358 359 359 360 355 349 352 353 352 352 350 349 347 345 345 345 348 349 348 347 347 349 350 350 349 351 351 350 350 349 349 349 349 350 350 350 349 350 349 347 346 346 348 348 347 347 348 348 350 350 350 350 350 351 351 350 348 349 348 348 349 351 350 350 350 348 350 352 350 352 352 352 352 351 352 351 351 350 349 348 349 351 351 352 352 351 351
354 355 357 359 357 359 358 355 359 355 353 360 361 357 353 350 351 351 351 351 351 350 347 344 344 347 348 348 348 345 346 349 349 349 350 351 351 351 351 351 351 350 350 350 350 349 349 351 349 346 346 346 347 348 347 348 349 349 351 350 350 350 350 351 350 349 347 348 347 347 349 349 349 349 350 349 350 351 351 352 352 351 352 351 351 350 349 347 345 344 346 348 350 350 350 350 350
354 353 356 360 357 358 357 357 358 352 353 361 361 355 352 351 349 349 350 352 351 348 345 345 343 345 347 347 347 345 347 349 348 350 350 351 351 351 351 351 351 350 350 351 350 350 351 351 348 345 347 347 346 347 347 349 350 350 350 350 350 349 350 350 350 349 348 348 348 348 348 348 348 347 348 349 350 351 352 352 352 351 352 351 349 347 345 343 341 342 344 346 348 348 348 348 348
353 353 356 358 355 355 356 360 359 352 354 362 359 353 352 351 348 350 350 350 349 345 345 345 343 345 345 344 346 347 348 349 349 350 351 351 351 351 351 351 351 351 351 350 350 350 350 350 348 346 347 347 345 346 347 349 350 350 350 350 350 350 350 350 349 350 349 348 348 349 349 348 347 347 349 351 351 351 352 351 352 351 351 350 348 346 343 339 336 337 340 343 346 347 347 347 347
351 355 359 356 353 354 356 361 357 352 358 362 356 351 352 351 350 351 348 349 348 347 347 345 345 346 344 346 348 348 349 349 350 351 351 351 351 351 350 350 350 350 350 350 350 349 350 350 349 346 346 346 345 345 347 348 349 350 349 349 349 350 349 349 349 350 349 349 349 349 349 348 348 349 352 352 350 352 352 350 352 352 350 349 347 345 342 339 336 334 335 340 345 346 345 346 346
353 358 358 352 354 357 357 362 358 356 362 361 354 352 353 353 352 350 348 351 350 349 349 346 346 347 347 349 349 349 350 350 350 351 350 351 351 350 349 349 349 349 350 350 350 350 349 351 350 348 347 347 345 346 347 347 349 350 349 348 349 350 349 348 349 349 349 350 350 350 349 349 350 351 351 351 351 352 352 351 352 351 349 348 346 346 344 341 339 335 334 340 345 345 344 345 346
354 358 357 351 357 357 356 360 359 359 362 360 355 353 353 353 352 350 351 352 350 350 350 348 348 347 348 349 349 350 350 351 351 351 351 351 350 349 349 348 349 349 350 350 350 349 349 351 351 350 349 349 347 347 347 348 349 349 349 349 349 350 349 348 349 349 349 350 350 350 350 349 350 351 350 350 351 351 352 352 351 349 348 347 345 345 343 340 339 336 336 342 345 344 344 345 347
353 355 357 355 357 355 356 358 359 361 361 360 356 353 355 354 351 350 352 352 351 352 350 348 349 349 347 347 350 351 351 351 351 351 351 351 350 350 349 349 349 349 350 350 350 349 349 350 350 349 349 350 348 347 347 348 349 348 349 349 349 349 349 349 349 350 349 350 350 350 350 350 349 350 349 350 352 353 353 351 350 348 346 345 341 340 339 337 338 337 337 340 343 344 346 347 347
353 354 356 357 357 356 359 359 359 361 361 360 356 355 356 354 351 351 352 352 352 353 349 348 349 349 347 346 350 351 351 352 351 352 351 351 351 350 350 350 350 349 350 350 350 350 349 349 349 347 348 350 349 347 348 348 348 348 348 348 348 348 348 349 349 349 350 350 350 350 350 349 348 349 348 350 352 353 352 350 349 348 345 342 338 337 337 337 338 338 339 341 343 345 347 348 347
351 355 356 357 358 358 360 358 358 359 360 359 356 356 356 354 353 351 351 353 353 351 348 347 347 347 347 346 349 351 351 352 352 352 352 352 351 351 350 350 350 350 350 350 350 350 349 348 348 347 348 350 349 348 348 348 348 348 348 347 347 348 348 348 348 349 349 349 349 349 348 348 348 349 347 348 350 351 351 350 349 347 344 340 337 338 337 337 338 338 340 343 345 347 347 348 347
348 355 357 357 358 359 360 358 358 358 359 359 357 357 356 355 353 351 352 352 351 348 346 346 347 348 348 349 350 350 350 352 352 352 352 352 351 351 351 350 350 350 350 350 350 350 349 349 348 348 349 350 350 349 348 348 348 348 347 348 348 348 348 348 348 348 348 348 348 349 348 348 349 348 347 348 349 350 351 349 347 345 342 339 337 338 338 339 340 340 342 345 347 348 348 349 349
347 355 359 357 357 358 358 357 357 356 359 360 357 357 357 356 354 351 351 351 348 347 346 347 349 349 349 349 349 349 351 353 353 352 352 352 352 351 351 351 350 351 350 350 350 350 350 349 348 348 349 350 350 349 349 348 348 348 348 348 348 347 348 348 348 349 348 348 348 349 349 349 349 348 347 348 349 349 349 347 344 342 340 339 339 342 344 344 345 346 346 347 348 349 349 350 351
348 354 359 357 356 358 356 355 356 355 357 358 356 359 360 357 354 351 351 350 347 346 346 347 348 348 348 347 348 350 352 353 353 352 352 352 352 352 352 351 351 351 350 350 351 351 351 349 348 348 348 349 350 349 349 348 348 348 348 348 348 348 348 348 348 348 348 348 348 348 349 349 349 349 348 348 349 348 347 344 341 340 339 340 344 346 347 347 347 348 348 349 349 348 350 351 350
351 355 358 357 356 356 356 356 357 356 356 356 356 360 359 355 354 352 351 349 346 345 346 346 347 347 347 347 348 350 350 352 352 352 353 352 352 352 352 352 352 352 350 351 351 351 352 350 349 349 348 348 349 350 349 348 348 348 348 348 348 348 348 348 348 348 347 348 348 348 348 349 349 349 349 348 348 346 344 341 339 338 339 342 346 347 347 348 348 349 349 350 350 348 349 350 349
355 356 357 357 357 355 355 357 357 356 356 356 357 359 359 354 354 354 351 348 346 346 346 346 347 347 347 347 348 351 351 352 353 352 353 352 352 352 352 352 352 352 351 351 351 351 352 351 349 349 348 347 348 350 349 348 348 348 347 348 348 348 347 347 348 348 348 348 348 348 348 348 348 349 348 347 346 344 341 340 338 339 342 345 346 347 348 349 349 349 350 349 349 348 348 349 349
355 356 358 358 357 356 356 357 357 356 357 356 356 357 358 354 354 356 351 348 347 346 347 347 347 348 347 347 348 351 352 352 352 352 352 352 353 352 353 353 352 352 352 351 351 351 352 351 349 348 348 347 348 350 349 348 348 348 348 348 348 348 347 348 348 349 349 348 348 348 348 346 346 346 345 343 341 341 340 339 339 341 344 346 347 349 349 349 349 349 349 348 348 348 348 349 349
355 357 361 360 359 359 356 357 356 356 355 354 355 357 359 357 355 355 350 348 348 347 348 348 348 348 348 348 348 350 352 352 352 352 352 352 352 352 352 353 353 353 352 351 352 351 352 352 349 348 348 348 348 349 349 349 349 348 348 348 348 347 347 348 348 348 348 348 348 348 347 345 344 343 340 340 339 339 339 339 341 343 345 347 349 349 349 349 349 349 350 349 348 349 351 352 351
357 358 359 360 358 358 358 356 356 356 354 353 355 356 359 360 355 353 350 349 350 348 348 348 348 348 348 349 348 349 351 352 352 351 352 352 351 352 352 353 354 353 353 351 351 352 352 352 350 349 349 349 349 349 349 349 349 349 349 349 348 348 348 348 348 348 348 348 347 347 346 344 342 340 339 339 339 338 339 340 343 346 347 348 350 350 350 349 348 350 351 350 351 351 353 353 352
358 356 355 357 348 351 359 357 357 358 353 354 356 351 354 360 355 352 350 349 350 349 349 348 348 348 348 348 348 348 350 351 352 351 351 351 351 352 352 353 354 354 353 352 352 351 351 351 351 350 349 349 349 349 349 349 350 349 349 349 349 348 348 349 349 349 348 347 347 345 344 343 340 339 339 339 338 339 342 345 346 348 348 349 351 350 349 349 349 350 350 351 353 352 352 352 351
356 348 346 352 344 349 362 358 358 360 354 356 357 348 351 358 355 351 349 350 351 349 350 348 348 348 347 348 348 347 348 350 350 350 350 351 351 352 352 353 354 354 353 353 353 352 351 351 351 351 350 349 349 349 349 349 349 349 349 348 347 347 348 348 349 349 348 348 347 345 343 343 342 341 340 339 340 342 345 348 348 348 348 350 351 350 350 350 350 351 350 350 352 351 352 353 352
355 347 341 347 345 347 358 358 358 360 357 358 358 354 355 356 354 351 349 350 352 350 351 350 348 349 348 348 347 347 347 348 349 349 349 350 351 352 352 353 354 354 353 353 353 352 352 352 351 351 350 350 349 348 348 349 349 349 349 347 345 345 347 348 348 349 349 349 349 348 345 345 344 342 340 341 344 345 346 348 349 348 348 350 351 350 351 351 350 352 352 349 348 349 352 353 353
347 349 343 348 350 345 348 356 359 358 359 360 360 359 358 355 354 351 349 351 352 351 351 350 349 348 348 348 346 347 347 346 347 348 349 349 350 351 352 353 354 354 353 352 353 352 353 352 352 351 350 350 350 348 347 349 350 349 349 348 346 346 348 349 348 349 349 350 350 348 347 346 344 342 342 344 346 346 346 348 349 349 349 350 350 351 352 352 351 353 353 351 348 349 353 353 351
338 343 342 344 350 347 347 355 359 358 360 362 361 360 358 355 354 350 348 351 351 351 351 349 349 348 348 348 346 347 347 346 347 348 348 347 350 351 352 353 354 353 353 352 353 352 353 353 352 350 349 348 349 349 348 348 350 349 349 349 348 348 349 349 348 349 350 350 350 348 346 345 344 343 344 346 346 347 347 348 348 349 350 350 351 352 353 354 354 354 353 351 348 348 349 349 347
342 345 345 341 343 347 354 359 358 359 361 362 359 357 357 355 353 350 348 349 350 350 351 350 349 348 348 348 347 347 346 346 347 348 347 347 349 351 352 353 353 353 353 353 353 353 352 352 351 349 349 347 347 349 349 349 350 350 350 350 350 349 349 349 348 349 350 350 349 347 345 346 345 345 346 347 347 347 347 347 348 349 350 351 351 353 354 354 354 352 352 350 348 350 350 348 347
347 348 347 346 343 343 355 362 358 358 360 360 358 356 357 356 354 351 347 348 350 350 351 351 350 349 348 348 347 347 347 346 347 347 347 347 348 350 352 353 353 353 353 352 353 353 352 352 351 350 349 347 346 349 350 349 349 350 350 350 350 351 351 349 349 350 351 350 348 346 346 346 347 347 347 348 347 347 347 347 347 349 351 351 351 352 352 352 353 352 351 350 349 352 354 353 349
336 336 337 337 335 339 354 361 356 357 358 357 356 356 358 357 354 353 349 349 350 349 350 350 350 349 348 348 348 348 347 346 346 346 346 347 348 350 352 353 353 353 353 353 353 353 352 352 351 349 347 347 347 348 349 350 350 350 350 350 351 351 352 351 351 351 351 351 347 346 347 347 347 348 348 349 348 347 347 347 347 348 351 351 350 351 350 350 353 353 352 352 352 352 354 352 348
322 325 323 319 326 338 352 361 359 356 358 358 356 356 359 359 355 353 351 350 349 349 349 350 349 350 349 349 348 348 347 347 346 345 346 347 349 350 352 352 353 353 353 353 353 353 352 352 351 349 347 347 348 347 347 349 350 349 349 350 351 351 351 351 350 349 350 351 349 347 347 347 347 348 348 348 348 348 347 347 348 349 350 351 352 352 351 352 354 354 353 353 353 353 353 352 348
318 320 315 317 332 333 335 353 360 356 356 356 356 356 357 358 354 354 352 351 352 351 350 350 349 349 349 348 348 348 347 347 346 344 345 346 348 350 352 353 352 353 354 353 353 353 353 352 350 348 347 348 348 347 346 347 347 346 346 346 347 347 347 346 347 348 349 351 350 348 347 347 347 349 349 348 348 348 348 347 349 350 351 350 351 352 353 355 355 356 355 354 353 354 354 353 352
317 320 316 319 335 333 333 351 359 356 354 355 354 350 352 357 355 354 354 352 354 353 351 350 348 348 348 347 347 347 347 347 346 344 344 346 348 350 351 352 352 353 353 353 353 353 353 352 349 347 348 348 347 346 346 346 346 346 347 347 346 346 346 346 348 350 350 351 351 350 349 347 347 350 350 348 349 349 348 349 350 351 352 350 351 353 354 355 355 356 356 354 356 356 354 355 354
315 319 320 320 328 337 349 355 351 347 347 351 352 342 344 355 355 355 355 354 354 353 353 351 350 349 347 347 346 346 346 346 345 344 344 345 347 350 351 352 352 352 353 352 352 352 352 352 349 348 348 347 346 346 346 346 347 348 349 351 350 350 350 350 350 351 351 351 352 352 351 348 347 350 350 349 350 351 350 351 351 353 353 351 351 352 353 354 355 356 356 356 358 356 355 358 355
312 316 322 322 325 338 351 350 339 336 339 349 353 340 338 348 352 355 356 356 355 354 354 352 352 351 348 346 345 345 345 344 344 344 344 345 346 349 351 352 352 352 352 352 352 352 352 351 349 348 348 346 346 346 346 347 348 349 351 352 352 352 351 351 350 349 350 351 351 352 351 350 348 350 352 350 350 352 352 352 352 353 353 353 352 352 353 356 356 356 355 355 356 353 355 359 357
313 319 321 321 329 343 350 346 337 339 343 350 354 345 340 341 347 355 356 356 357 355 355 353 353 353 350 347 345 344 345 343 344 343 343 344 346 348 350 351 351 351 352 352 352 351 351 350 349 348 348 346 346 346 347 347 349 350 351 353 353 352 352 351 348 347 348 348 349 350 351 351 349 349 351 350 348 351 352 352 352 353 353 353 353 353 355 356 356 355 354 354 354 353 355 358 357
329 334 333 331 341 349 350 346 342 344 342 341 347 349 343 338 343 356 357 355 357 357 356 354 354 354 352 350 346 344 345 344 344 342 342 344 345 348 349 350 350 350 351 352 351 351 350 349 348 348 349 347 346 347 347 347 348 350 351 353 353 351 351 351 348 347 346 346 347 347 348 350 349 347 348 348 348 351 352 352 352 352 353 353 354 356 356 356 355 354 353 354 355 355 355 354 357
343 342 342 343 346 348 349 346 344 344 338 334 342 347 342 337 339 351 355 354 356 357 356 354 354 354 354 352 348 345 344 344 343 342 343 344 345 347 347 349 350 350 351 351 351 351 350 349 348 348 349 348 347 347 347 347 348 349 351 352 352 351 350 350 349 347 346 346 346 347 346 347 348 346 347 347 346 349 351 352 352 353 354 354 355 355 356 355 354 353 354 354 354 356 356 355 358
344 343 345 343 344 345 347 347 345 343 336 332 339 344 342 336 337 348 354 354 355 355 355 354 354 354 354 354 351 346 343 343 342 342 343 344 344 346 347 348 350 349 350 351 351 352 351 349 348 348 348 349 348 347 348 348 348 349 350 351 351 350 350 350 349 347 347 346 346 346 346 346 346 345 346 347 346 348 350 351 353 353 354 354 354 354 356 356 355 356 356 354 353 355 356 357 358
340 346 342 334 342 346 343 344 343 336 330 331 339 344 343 337 337 349 355 353 354 354 354 354 353 354 354 354 353 348 345 343 343 343 342 344 345 346 347 348 349 349 349 350 350 351 352 350 348 347 348 349 348 348 348 348 349 350 350 350 350 350 350 350 350 349 348 347 346 346 345 345 346 344 344 345 346 347 348 349 351 351 351 353 353 354 355 355 355 356 355 354 355 355 356 357 357
335 342 330 322 339 345 337 336 333 329 329 333 340 344 343 339 341 353 357 354 354 354 355 354 352 353 353 354 354 351 346 343 343 344 341 343 346 347 347 347 349 350 350 350 350 351 352 351 349 347 348 348 348 348 349 349 350 350 350 350 351 351 350 350 350 350 349 347 347 346 344 344 345 345 345 344 344 347 346 346 346 346 349 353 353 353 354 354 355 355 355 356 356 356 356 357 357
329 334 324 316 327 332 331 334 331 328 330 334 341 344 339 337 344 356 357 354 354 352 354 354 352 351 352 353 353 351 349 344 343 343 341 342 346 347 347 348 349 350 349 349 350 350 352 351 350 348 348 348 347 348 349 349 350 350 351 351 351 351 351 351 351 350 349 347 345 344 345 345 345 347 348 345 344 346 346 345 342 343 349 353 353 352 352 353 355 355 355 356 357 355 354 355 357
325 331 327 318 318 319 324 331 330 329 333 338 346 343 335 335 344 354 355 353 353 352 353 353 351 350 350 352 353 352 351 347 343 342 340 342 346 347 348 349 349 349 349 349 350 350 352 352 351 349 348 348 348 348 349 349 350 351 351 351 351 350 350 350 351 351 349 346 344 343 345 346 347 347 348 347 345 344 345 344 341 342 349 353 353 352 352 353 355 355 355 355 356 356 353 354 358
322 329 327 321 322 322 321 324 324 325 329 335 342 341 337 341 348 352 352 352 353 352 353 352 349 349 350 352 353 353 352 349 344 342 340 342 345 347 348 349 349 349 350 349 350 351 352 352 351 350 349 348 348 348 349 349 350 351 351 351 351 351 350 351 351 351 350 347 345 345 345 347 347 348 349 348 347 345 345 345 343 346 350 350 352 352 353 354 353 354 356 355 356 357 355 355 358
321 324 322 322 328 328 324 324 325 322 321 327 335 338 338 339 344 351 353 353 354 353 353 353 350 349 350 351 353 353 353 352 347 343 340 341 344 346 348 348 348 349 350 350 350 351 351 352 352 351 351 350 349 348 349 350 350 351 351 351 351 351 351 352 352 352 352 350 348 348 348 348 347 348 349 349 349 348 347 346 345 349 350 349 351 353 353 353 352 355 357 356 356 358 356 356 358
321 319 320 323 327 328 329 330 330 326 323 324 327 333 336 336 340 350 355 354 355 354 354 354 353 351 350 350 352 353 354 354 352 347 341 341 343 345 347 348 348 349 350 350 351 351 350 351 351 352 352 352 350 350 350 351 351 351 351 351 352 352 352 353 354 353 353 352 351 350 350 349 349 349 350 349 350 350 350 347 345 349 351 351 352 353 353 353 353 355 357 356 357 357 356 357 358
322 320 322 322 321 323 327 329 331 329 327 325 323 329 338 341 344 352 356 357 357 355 354 354 355 354 352 350 351 352 353 355 354 350 344 342 343 345 346 348 349 350 350 351 351 351 351 351 352 352 352 351 351 351 353 353 352 352 353 352 352 352 352 352 353 353 353 352 352 352 351 351 350 350 350 350 350 350 351 349 347 349 353 353 352 352 353 353 354 356 358 358 357 356 355 357 358
326 326 330 327 322 321 323 325 327 330 331 330 325 325 336 346 351 355 357 358 357 355 354 354 354 353 353 352 350 351 353 355 355 353 348 345 344 345 347 349 350 351 351 351 351 351 351 352 352 352 352 352 352 352 353 354 353 354 353 352 352 351 350 351 351 352 352 353 353 353 353 352 351 351 351 350 351 351 351 351 350 352 355 355 354 354 355 355 354 356 357 358 359 358 357 358 358
327 328 328 328 324 320 321 322 322 325 329 332 326 322 334 348 352 354 357 356 354 353 354 354 352 350 351 352 352 351 351 353 355 354 352 349 345 344 346 348 350 351 351 352 352 352 353 353 353 353 353 353 353 353 354 354 354 354 354 352 351 351 350 351 352 352 352 353 353 352 352 353 352 352 352 352 351 352 352 351 352 354 355 355 354 354 356 356 355 355 356 357 358 359 358 359 359
329 329 327 330 327 321 320 319 319 320 324 331 329 323 335 349 349 351 355 354 352 351 351 351 349 347 348 350 351 351 351 351 352 353 353 352 349 346 346 347 348 351 351 351 353 353 354 354 354 354 353 353 353 353 354 354 354 354 354 353 352 352 351 352 353 354 354 354 354 353 352 352 353 353 353 353 353 353 352 352 353 354 354 355 354 353 356 358 357 357 357 357 358 359 359 360 359
Wind_Speed
6 6 6 5 3 3 2 2 1 1 1 4 2 1 2 0 1 4 7 8 6 6 4 6 12 9 3 2 4 3 3 3 2 1 2 4 10 15 13 17 20 19 17 15 14 12 11 13 11 9 10 11 11 12 13 13 13 13 13 13 11 10 12 11 12 16 17 17 18 18 19 18 18 17 17 16 16 16 17 18 17 16 17 17 17 17 18 18 18 19 19 17 15 15 17 18 17
7 6 3 1 1 2 0 1 0 2 2 4 2 1 2 1 3 5 8 6 5 7 7 10 12 6 3 2 5 5 4 3 3 2 4 9 14 11 11 17 19 18 16 15 15 14 11 12 11 10 10 10 11 11 12 12 12 13 12 12 11 8 10 12 13 16 17 17 18 18 18 17 17 17 16 15 15 15 16 17 16 16 16 17 18 17 18 18 18 18 17 16 15 13 15 17 18
7 6 3 1 1 2 1 1 0 2 3 4 2 1 1 2 3 4 5 4 7 10 10 11 9 4 3 5 3 2 3 3 3 5 6 12 12 10 13 15 17 17 15 14 15 14 13 12 11 10 10 10 10 10 11 11 11 13 12 11 10 9 9 12 13 16 17 17 17 17 17 16 16 16 15 15 15 15 15 15 15 16 15 16 17 17 18 18 18 18 16 15 15 12 13 16 17
7 5 2 1 1 1 1 0 1 1 3 4 4 2 0 2 4 5 4 4 10 12 11 11 6 2 0 3 2 1 4 3 5 6 8 11 9 14 16 15 16 15 13 13 13 14 13 12 12 10 10 10 10 10 10 11 11 11 12 11 10 10 10 12 13 14 16 16 17 17 16 16 15 15 15 14 14 15 15 15 15 15 15 15 16 16 17 18 17 17 16 15 13 11 13 15 16
6 3 0 1 1 0 1 1 1 0 3 2 3 3 1 3 5 6 5 6 11 12 12 9 4 3 2 4 2 1 4 5 6 5 8 9 11 17 17 15 15 13 13 12 13 13 13 13 12 11 10 10 10 10 10 10 11 10 11 11 11 11 11 12 13 13 15 15 16 17 16 15 14 15 14 14 13 13 14 14 14 14 15 15 15 16 16 17 16 15 16 15 12 10 12 13 15
5 2 1 2 1 0 1 2 2 2 3 1 2 4 3 5 7 8 8 8 8 8 8 6 4 5 5 4 3 3 3 4 7 6 7 11 14 17 16 16 14 13 12 12 13 12 13 12 12 12 11 12 11 11 11 11 12 12 12 12 11 11 12 12 13 13 14 14 15 16 15 15 14 14 14 14 13 13 13 13 13 13 14 14 15 16 16 16 15 15 15 14 11 9 11 12 14
4 1 1 2 0 1 0 3 3 3 2 2 2 5 6 6 7 10 11 9 7 5 3 4 6 7 5 2 4 6 4 2 6 7 9 14 16 16 15 15 14 13 12 12 12 11 12 12 11 11 10 11 11 10 11 12 12 12 12 12 10 11 12 12 13 13 13 14 14 15 14 14 14 14 14 14 13 12 12 13 13 13 14 14 14 15 15 15 15 14 14 13 11 9 11 12 13
2 1 1 1 0 1 2 4 3 2 2 1 2 4 7 8 7 10 11 7 7 5 4 7 6 4 4 1 3 6 5 5 8 10 13 17 18 15 14 14 14 13 11 12 12 11 11 11 10 9 8 8 8 8 9 10 9 9 10 10 10 10 11 11 12 12 12 14 14 13 13 14 14 13 13 14 13 11 11 12 13 13 13 13 14 14 14 14 14 14 13 12 10 10 11 11 11
1 1 1 1 1 3 3 4 3 2 2 2 2 3 6 7 4 7 9 6 6 6 6 6 2 1 5 5 5 5 5 8 13 15 16 18 17 15 14 13 14 13 11 12 11 11 10 10 9 8 7 6 6 7 7 8 7 7 8 9 10 9 10 10 11 11 11 13 13 13 12 13 14 13 13 13 12 11 11 12 13 13 13 13 14 14 14 13 13 13 12 11 10 10 10 10 10
1 0 1 0 2 4 4 3 3 2 2 2 3 5 7 5 2 5 7 7 6 7 6 3 3 5 7 6 5 4 5 11 16 16 15 16 16 14 13 13 14 14 12 12 11 11 10 10 8 7 6 5 6 6 6 7 7 7 7 8 9 9 10 11 11 10 10 11 12 12 11 12 13 13 13 13 12 10 10 11 11 12 12 13 14 13 13 12 12 12 11 10 10 10 9 9 9
1 0 1 1 2 4 4 4 4 3 2 2 3 4 5 4 5 5 5 7 5 6 7 3 5 9 8 6 4 4 8 13 16 17 15 15 14 14 14 13 14 14 13 12 11 10 10 10 8 6 5 5 4 5 5 6 6 7 7 8 8 9 10 11 10 10 10 10 11 11 11 11 11 11 12 13 12 10 11 10 11 11 12 13 13 13 12 11 11 11 11 10 10 10 10 9 9
1 1 1 1 2 2 3 5 6 5 3 3 4 3 4 6 6 7 7 7 5 6 6 3 6 9 7 5 4 6 10 12 14 16 15 14 13 14 13 13 13 13 12 12 11 10 10 9 8 5 5 4 4 4 4 5 5 5 7 7 8 8 9 10 11 10 10 10 11 11 11 10 9 10 11 13 12 10 10 10 11 11 12 12 12 12 11 10 10 10 10 10 10 10 10 9 8
2 1 1 2 1 2 4 5 5 5 4 3 3 2 4 7 6 8 8 7 7 7 4 4 7 6 5 6 5 7 10 13 14 15 15 13 13 13 12 12 13 12 11 11 10 10 9 9 7 5 5 5 5 4 4 5 6 6 6 6 7 8 8 9 12 11 9 10 11 11 12 11 10 9 10 12 11 10 10 10 11 11 11 12 11 11 10 9 9 9 9 10 10 10 9 8 8
2 1 1 2 2 3 4 4 5 5 5 3 2 3 4 3 4 6 8 9 6 4 5 7 8 5 6 6 5 6 10 14 15 15 14 13 12 12 12 12 12 11 11 10 10 10 9 8 6 5 4 4 4 4 5 5 6 6 6 6 7 7 8 9 12 11 9 10 11 11 13 13 11 10 10 11 10 10 10 10 11 11 11 11 10 10 9 8 7 8 8 9 9 9 8 8 7
1 0 1 3 3 3 3 2 4 5 4 4 3 6 4 3 4 5 4 6 4 4 7 7 4 2 5 6 6 8 12 17 16 15 14 13 12 12 12 12 11 11 10 10 9 9 9 9 6 4 3 3 3 4 5 5 4 5 6 6 6 7 8 9 11 12 10 10 11 12 13 13 11 10 11 10 9 10 10 11 11 11 11 10 9 8 8 8 7 7 7 8 8 8 8 7 6
0 1 1 2 3 3 2 2 3 4 4 4 4 7 7 5 5 3 2 2 6 6 5 5 1 0 4 5 8 14 17 18 16 15 15 13 12 11 11 11 11 10 9 9 8 9 9 9 6 4 3 3 3 4 4 5 4 5 5 6 6 7 8 9 11 12 11 11 11 12 13 13 12 11 11 10 10 11 10 10 11 11 11 10 8 7 8 7 7 7 7 6 7 6 6 6 6
0 1 1 2 2 2 2 4 4 3 5 5 6 8 8 7 4 3 3 4 9 7 3 5 3 2 5 8 14 20 19 18 17 16 15 13 12 11 10 9 10 9 8 8 8 8 9 10 6 4 3 3 2 3 4 5 5 5 5 6 6 7 8 9 11 11 11 11 11 13 13 13 12 11 11 11 10 10 10 10 10 10 10 8 7 7 8 8 7 7 7 6 6 5 5 4 4
1 0 1 1 1 1 1 4 3 1 5 7 7 8 9 10 7 5 6 7 8 7 5 7 8 8 11 15 20 20 18 18 17 15 14 12 11 10 10 9 9 9 9 8 8 8 9 10 7 4 3 3 3 3 4 5 5 5 6 7 7 8 8 9 11 11 11 12 12 13 14 13 12 11 10 11 10 9 10 9 9 9 8 7 7 8 8 8 8 7 7 6 6 5 4 3 4
1 1 1 1 1 1 1 2 1 0 4 8 6 6 7 10 10 7 6 7 8 8 6 7 11 11 14 18 19 19 18 17 15 13 13 11 10 10 9 9 9 9 9 9 8 8 9 10 8 5 3 4 4 4 5 5 5 5 6 7 9 10 9 9 10 11 11 12 12 13 14 13 12 11 10 11 10 9 9 8 8 8 7 7 7 7 7 7 7 7 7 6 5 4 3 3 4
1 1 1 1 1 1 0 1 2 1 3 9 8 5 5 8 9 6 7 10 8 7 8 8 10 12 15 17 18 18 17 15 14 13 12 11 9 9 9 9 9 9 9 9 9 8 8 10 8 6 4 4 4 4 4 6 6 6 6 8 9 10 10 10 10 11 10 10 11 13 14 13 12 11 10 10 9 9 8 8 8 7 7 7 6 6 7 8 8 7 6 4 4 3 3 3 4
1 1 1 1 1 2 2 0 2 1 3 7 8 7 6 6 5 7 11 10 6 7 8 10 13 16 17 17 17 18 16 15 14 12 11 10 9 8 8 8 8 8 9 8 9 8 8 9 8 6 5 4 4 4 5 6 6 6 6 8 8 9 10 10 10 11 10 9 10 12 14 14 12 11 11 10 8 8 8 8 7 7 7 6 6 7 8 8 8 7 6 4 3 3 3 3 4
2 1 1 1 2 3 2 1 2 3 3 6 8 8 8 5 4 9 13 8 4 6 8 9 14 17 18 18 17 17 16 15 14 12 11 10 9 8 7 7 8 8 9 9 9 9 8 8 7 7 5 5 5 4 5 7 6 5 6 8 8 9 9 11 12 10 9 9 10 12 14 13 12 11 11 9 8 8 7 6 6 6 6 6 7 8 8 9 8 7 6 5 4 4 3 4 5
2 1 1 1 2 4 2 0 3 4 5 7 8 6 7 6 5 8 9 2 1 4 6 9 13 16 19 18 17 16 15 14 13 13 11 10 10 9 8 8 8 9 9 9 9 9 9 8 7 7 5 5 5 4 5 7 7 6 7 8 8 9 9 10 10 9 9 10 11 12 13 12 11 10 10 9 8 7 6 5 5 6 7 8 9 9 9 9 8 7 6 5 4 4 4 5 6
4 1 1 1 2 4 4 3 4 5 6 4 4 5 6 6 6 6 5 2 3 7 7 9 13 16 18 16 15 14 14 13 12 12 11 10 9 9 9 8 8 9 9 10 9 9 10 9 8 7 6 5 5 4 5 6 7 8 7 7 8 9 9 8 7 7 9 10 11 12 12 12 11 10 9 9 8 7 5 5 6 7 8 9 10 10 9 8 8 6 5 5 5 5 6 7 8
5 1 1 1 2 4 4 4 5 7 5 4 6 5 3 2 4 7 4 2 5 9 10 11 13 15 15 14 14 13 12 12 12 11 10 9 8 8 8 8 8 9 10 10 10 9 10 10 9 7 6 5 5 5 4 5 6 7 8 7 8 9 8 7 8 9 10 10 11 12 12 11 11 9 9 8 7 6 5 6 7 8 9 10 10 9 8 7 6 6 6 6 6 7 8 9 11
4 2 2 1 2 4 3 3 6 7 5 7 8 6 3 3 1 6 4 4 8 10 12 13 13 14 14 12 13 13 12 12 12 11 10 8 8 8 8 8 9 9 10 10 10 10 10 10 9 8 7 6 5 5 5 5 6 7 8 9 9 9 9 9 10 11 11 11 11 12 11 10 9 9 8 7 6 6 7 8 8 9 9 9 9 7 7 7 6 6 6 7 8 9 10 12 13
5 6 5 4 4 5 3 3 5 7 7 9 10 6 3 2 2 4 4 5 10 11 12 13 13 14 13 12 11 12 12 12 12 10 9 9 9 9 9 9 9 9 10 10 10 10 10 11 10 9 8 7 5 5 5 6 6 7 9 10 10 10 10 11 11 11 11 11 11 11 10 9 9 8 7 7 6 7 8 8 9 9 9 8 7 7 6 7 7 6 7 7 9 10 11 13 13
8 7 5 5 4 6 5 4 1 3 4 7 11 8 3 2 2 3 7 8 11 13 13 14 13 12 12 12 10 10 11 12 12 10 10 10 10 10 10 10 10 10 10 11 10 10 11 11 10 10 9 8 7 5 6 6 7 7 8 9 10 11 11 11 11 10 11 11 11 10 9 9 9 8 8 7 8 8 8 9 9 8 7 6 6 6 6 7 7 7 7 8 9 11 12 13 13
6 4 2 3 2 5 6 4 3 2 3 3 8 9 2 2 1 3 8 10 11 13 13 13 13 11 11 11 9 8 10 11 11 10 11 11 10 11 11 10 11 10 10 10 11 11 11 11 11 10 10 9 8 7 7 7 7 8 8 8 9 10 10 10 10 10 10 10 10 10 9 9 9 9 9 9 9 9 9 10 8 7 6 6 6 6 7 7 7 7 7 8 9 11 10 11 11
4 2 0 1 1 4 6 3 4 5 6 4 3 4 4 6 1 3 8 11 11 12 12 12 11 10 9 9 8 8 9 10 11 11 12 11 10 10 10 10 11 11 10 11 12 12 11 11 11 11 10 9 9 8 7 7 7 8 8 8 9 9 9 9 10 10 10 10 10 10 10 10 10 10 10 10 10 10 9 9 7 6 5 5 5 6 6 6 7 7 7 8 9 9 9 9 11
1 1 1 0 2 3 7 4 5 7 7 4 1 1 3 7 4 4 8 11 13 12 12 12 10 10 9 9 9 8 9 10 12 13 12 12 10 10 11 11 12 11 11 12 12 13 12 11 11 11 11 10 10 9 8 7 7 7 8 8 9 9 9 9 9 9 9 9 9 10 10 10 10 10 9 9 9 9 8 6 6 5 4 5 5 5 5 6 7 7 8 8 8 8 8 9 11
1 2 1 1 3 3 6 6 5 5 6 3 3 2 3 5 5 6 9 11 13 12 12 12 11 11 10 9 9 8 9 11 12 13 13 13 11 11 11 12 13 12 12 12 13 13 12 12 11 11 11 11 10 10 9 8 7 7 7 8 10 10 10 9 8 8 8 9 9 9 10 10 9 9 9 9 9 8 7 5 4 4 4 4 5 5 5 5 6 7 8 9 9 10 9 9 10
1 2 1 2 2 2 4 5 5 4 5 2 3 3 3 1 2 6 10 11 13 12 11 13 12 12 11 9 9 8 8 10 11 13 13 13 13 12 11 12 13 13 13 13 13 13 12 12 12 12 12 11 10 11 11 10 9 8 7 9 11 11 10 9 9 9 9 9 9 9 9 9 8 8 8 9 8 7 6 4 3 3 4 4 4 5 4 5 6 6 7 8 9 11 10 9 9
1 1 1 1 2 2 1 3 4 4 2 2 1 2 3 4 1 6 10 11 12 12 12 13 11 11 10 9 8 8 8 9 10 12 14 14 13 13 12 11 12 13 13 14 14 13 12 12 12 12 12 11 11 11 12 11 10 9 8 9 10 10 9 8 9 9 8 8 8 8 9 8 8 8 8 8 7 6 5 4 3 3 3 3 4 4 4 5 5 5 6 7 8 10 9 9 9
1 1 1 1 1 1 1 2 2 2 2 2 2 3 2 4 1 6 9 10 11 12 12 12 12 11 10 10 9 9 9 9 11 13 14 14 13 13 12 11 12 12 12 13 14 13 13 12 13 13 13 13 12 11 12 11 10 10 9 9 9 9 9 9 9 9 8 8 8 8 9 9 8 8 7 7 6 5 4 3 3 2 2 2 3 3 3 4 4 5 6 6 7 8 9 9 9
2 1 1 1 1 1 2 3 2 3 3 1 2 3 3 2 1 4 7 9 10 10 10 10 10 11 10 10 9 9 10 10 11 13 13 13 13 13 12 11 11 11 12 14 15 14 14 13 14 14 13 15 14 12 11 12 11 11 11 10 10 9 9 10 10 9 8 8 8 9 9 9 9 8 7 6 5 4 4 3 2 1 1 1 2 2 3 3 4 5 5 6 7 7 8 8 9
1 1 1 0 0 1 2 3 2 2 3 2 3 4 4 3 1 3 6 9 10 11 10 10 10 10 10 11 11 11 11 10 11 11 12 13 13 13 12 11 12 12 12 15 15 15 15 15 15 15 15 16 17 14 13 13 12 12 12 11 10 9 10 11 10 9 8 8 9 10 10 9 8 7 6 5 4 4 3 3 2 2 1 1 2 3 3 3 4 5 5 5 7 7 7 7 8
1 1 2 1 1 1 2 2 2 2 3 3 3 5 6 4 2 3 6 9 13 13 12 12 12 11 10 11 12 11 10 9 9 10 11 12 12 13 12 12 14 14 13 14 15 15 16 15 15 17 18 18 18 17 15 14 13 13 13 12 10 10 10 10 9 9 8 8 11 11 10 9 8 7 6 4 4 3 2 3 3 3 2 2 3 4 4 4 4 5 5 5 6 6 6 7 7
1 1 2 1 1 2 3 3 2 1 3 4 4 6 7 4 4 5 7 9 11 11 12 12 13 12 11 11 12 11 11 10 10 10 11 13 13 14 13 13 14 14 13 14 14 15 16 16 17 17 19 19 19 18 17 15 13 13 12 11 10 9 10 10 9 10 9 8 10 11 10 9 8 7 6 4 3 3 3 3 3 2 2 3 3 3 3 3 3 4 4 5 5 5 5 6 7
3 2 3 1 2 2 1 2 2 2 1 2 4 6 7 4 4 6 8 8 6 7 9 9 10 12 12 13 12 11 13 11 11 11 11 13 14 14 14 13 13 13 13 15 15 16 16 17 19 19 19 20 19 19 18 16 15 14 12 11 10 9 10 12 11 11 10 9 9 10 10 9 8 7 6 3 2 3 3 3 2 2 3 4 3 3 2 2 3 3 3 5 5 4 4 5 6
3 5 5 2 4 3 1 4 4 2 1 1 3 5 6 5 7 9 8 7 7 6 8 9 9 11 11 11 11 12 12 11 11 12 11 12 14 15 15 14 14 14 15 17 17 17 16 18 20 20 19 20 20 19 18 17 16 14 12 10 10 9 9 10 10 9 10 10 9 9 10 10 9 8 6 4 4 3 3 3 2 3 4 4 3 3 2 2 2 2 3 4 5 5 4 3 4
3 6 8 6 6 5 7 8 5 1 1 2 4 5 3 4 8 10 7 8 10 8 9 12 11 11 10 10 11 12 11 11 11 12 11 13 15 15 15 15 16 16 16 18 18 17 16 18 21 20 20 21 21 20 19 18 17 16 14 11 10 10 9 9 10 10 10 10 9 8 10 11 10 8 7 6 5 4 4 3 3 3 3 3 3 3 2 2 2 2 2 3 4 4 4 3 3
4 3 6 7 6 5 9 7 3 2 2 1 5 6 4 1 5 8 8 10 13 11 11 14 12 10 11 11 12 12 12 11 11 11 11 13 15 15 16 17 18 18 18 17 18 18 18 19 21 21 21 22 22 21 20 19 18 17 16 13 11 11 10 10 11 11 10 10 10 9 10 11 11 10 8 8 7 6 6 5 4 4 3 3 3 3 2 2 1 1 1 2 3 3 4 4 3
2 1 5 7 7 7 8 5 1 0 1 2 6 6 6 5 2 4 9 11 13 13 14 15 13 11 12 13 13 13 13 12 11 11 11 13 16 17 18 19 20 20 18 17 19 20 21 22 22 22 21 23 24 23 22 21 20 18 17 13 12 12 11 10 12 12 11 12 12 11 10 11 13 13 11 10 10 8 7 7 6 5 4 3 3 3 3 3 2 2 2 2 2 3 3 3 4
1 6 10 10 10 10 9 5 2 1 2 3 5 4 5 5 1 2 6 11 13 16 17 16 15 14 12 12 14 14 13 13 12 12 12 15 17 19 20 20 21 20 18 20 22 22 23 24 23 22 22 23 25 24 23 23 22 20 17 14 13 14 12 11 12 12 11 12 12 12 12 11 12 14 14 13 12 10 9 8 7 6 5 4 4 3 4 4 3 3 3 3 2 2 2 2 3
5 12 14 12 11 9 7 4 2 2 3 3 5 7 4 5 2 1 3 7 9 11 13 14 14 14 12 11 12 14 13 12 12 13 14 17 19 21 21 20 20 20 19 21 21 20 23 25 24 23 23 23 25 26 25 24 23 22 19 17 15 15 14 13 13 13 13 13 13 13 12 12 11 13 14 15 15 13 11 10 8 7 6 5 5 5 5 5 5 4 4 4 3 3 2 2 2
10 12 13 11 8 6 5 2 1 2 3 1 5 11 7 4 2 2 0 2 4 6 7 10 13 14 14 12 12 13 13 11 12 13 15 18 19 20 19 19 20 19 18 18 18 19 22 25 25 25 24 24 25 26 26 25 24 23 22 20 18 17 16 15 15 15 15 15 15 14 13 12 12 12 13 15 16 15 14 13 11 9 8 7 6 6 6 5 5 5 5 5 4 3 3 3 2
7 5 7 7 3 2 3 1 2 3 2 2 2 9 8 6 1 5 4 5 7 7 7 9 13 16 15 13 12 12 12 12 12 11 12 14 15 16 17 18 18 17 17 18 19 19 21 25 27 26 25 25 25 26 27 26 26 25 24 22 20 19 18 17 17 17 17 17 16 15 15 14 13 13 13 15 16 16 16 16 14 12 10 8 7 6 6 6 6 6 6 5 5 4 4 4 3
2 3 6 4 1 1 1 1 2 4 1 3 1 5 5 6 2 6 8 8 9 9 9 10 13 16 15 14 13 11 11 11 12 11 11 12 12 15 17 18 17 17 18 20 20 19 21 25 29 29 28 28 27 26 27 28 28 27 26 24 22 20 19 19 18 18 18 18 17 16 16 15 15 14 14 15 16 15 16 17 16 14 12 9 8 7 7 7 6 6 6 5 5 5 5 5 4
5 4 5 3 2 2 2 1 2 4 1 3 1 5 4 5 0 6 10 9 10 10 10 11 13 16 15 15 13 12 11 11 11 11 12 11 13 16 18 18 19 20 21 21 21 20 20 23 28 31 30 29 29 28 28 28 29 29 27 25 23 22 21 20 19 18 18 18 18 17 16 15 15 15 14 15 15 15 15 16 16 14 13 10 9 8 8 8 7 7 7 6 6 6 7 6 5
5 3 3 4 3 3 2 3 2 2 2 3 1 4 3 2 3 5 9 9 10 11 11 9 8 13 12 11 11 11 11 10 9 11 12 12 15 18 18 18 20 21 22 22 21 21 20 22 27 32 32 31 31 30 30 30 30 29 28 26 25 24 23 21 19 18 17 17 17 17 17 16 15 15 14 14 14 15 16 16 15 14 13 11 10 10 10 9 9 9 9 8 7 7 8 7 7
2 1 3 3 2 2 1 2 3 3 1 3 2 3 2 1 2 5 10 11 12 14 13 9 3 8 9 8 9 9 9 10 10 11 12 13 15 17 17 19 20 20 21 22 21 21 22 23 27 32 33 33 33 32 32 32 31 30 29 28 26 25 24 22 20 19 18 17 17 18 17 16 16 15 14 13 12 14 15 16 15 14 13 12 12 11 11 11 11 10 10 9 8 7 8 8 7
3 3 3 1 1 0 3 3 3 3 1 1 1 3 2 1 1 6 13 13 15 17 14 11 6 4 10 9 8 7 7 8 8 9 10 11 14 16 17 19 21 20 21 22 22 24 26 26 27 30 31 31 33 34 34 33 32 31 30 30 28 27 25 23 20 19 18 19 19 19 18 18 17 16 15 14 13 13 14 15 15 14 14 13 13 12 11 11 12 11 10 10 9 8 9 9 8
1 2 2 2 1 1 2 2 2 2 2 2 1 3 3 1 1 8 15 15 15 16 14 12 10 3 6 8 8 7 5 5 6 8 9 10 13 15 17 19 21 22 23 24 25 26 28 29 29 29 29 30 32 34 33 32 33 32 31 30 29 28 26 22 20 18 18 19 19 19 19 18 18 17 16 16 15 14 14 14 16 15 14 13 13 13 12 11 12 11 11 11 10 9 10 10 9
3 3 2 0 1 1 2 1 2 3 2 4 3 2 2 2 3 9 13 14 13 13 12 12 11 8 4 1 4 5 4 3 3 4 5 7 11 16 18 19 20 22 23 24 25 25 25 26 27 26 28 30 31 29 27 28 30 29 28 30 30 30 28 24 21 20 19 19 19 18 18 19 18 18 17 17 16 16 15 14 15 16 14 13 13 13 13 12 12 11 11 10 10 11 11 11 10
4 3 2 2 1 0 1 1 2 3 2 2 5 4 1 1 4 9 10 11 11 10 10 9 9 9 7 5 4 4 4 3 1 1 0 1 5 11 17 19 20 21 22 21 22 23 23 24 24 23 24 25 25 24 24 26 27 26 26 28 30 31 31 28 25 23 21 19 19 18 17 18 18 18 17 17 16 16 16 15 14 14 13 13 13 13 12 13 13 13 12 11 10 11 12 12 11
3 4 4 4 1 0 1 1 2 3 4 2 6 7 1 2 3 7 8 9 8 9 8 6 7 8 7 5 3 5 6 5 4 4 3 2 0 5 9 13 15 16 18 18 19 20 20 21 22 22 24 24 24 23 23 25 26 25 26 29 29 31 32 30 27 24 22 21 20 19 18 17 17 18 17 17 18 17 16 16 15 14 14 13 14 14 13 13 14 15 14 14 13 13 14 13 12
3 4 4 3 2 1 2 3 2 1 2 3 4 7 1 2 2 4 6 6 6 8 9 7 7 9 9 7 4 1 3 5 6 6 5 4 3 3 6 11 13 14 15 16 17 17 18 18 18 18 20 23 23 22 22 24 25 26 27 28 27 28 31 30 26 23 22 21 20 20 20 19 17 17 17 18 18 17 17 17 16 15 15 15 15 15 14 14 14 15 15 14 13 13 14 13 13
Wind_Direction
161 136 109 109 136 190 197 227 200 136 230 95 82 87 108 16 130 125 129 134 127 153 162 134 148 150 143 190 175 93 31 170 155 179 120 80 133 144 142 141 147 146 144 145 144 141 139 142 143 138 134 135 130 126 121 118 120 116 116 119 123 127 130 138 133 120 114 113 112 111 111 112 112 111 109 108 106 107 111 111 108 105 106 106 105 105 106 103 100 97 95 94 94 98 102 103 104
163 143 143 98 172 223 243 252 274 102 132 104 91 26 82 175 180 141 141 144 124 147 153 140 149 141 85 107 145 123 75 36 20 61 85 121 133 136 142 144 147 145 142 145 146 143 143 142 141 137 132 135 130 124 118 119 122 117 124 126 123 134 142 143 132 119 114 113 113 113 112 112 111 110 108 106 104 105 108 110 108 107 106 105 106 105 104 102 101 102 101 102 101 101 105 107 104
152 147 178 242 224 224 286 248 234 124 125 109 116 47 81 173 153 123 126 113 117 138 140 141 147 127 117 130 131 123 94 53 103 107 116 139 137 143 147 146 148 143 140 144 145 141 141 141 140 137 134 134 130 125 117 117 119 123 130 127 133 153 148 131 119 115 114 113 114 114 114 113 112 110 108 105 104 104 105 108 108 109 108 106 108 108 107 105 104 104 103 104 103 104 107 106 103
146 157 182 267 226 207 269 190 66 133 120 116 127 102 320 139 116 103 97 105 129 138 139 146 144 69 19 120 87 49 94 103 135 118 135 151 143 145 147 147 146 141 139 141 141 138 137 142 141 137 134 133 131 129 123 118 121 128 130 132 147 151 133 117 113 114 114 115 116 115 115 114 113 111 108 106 104 102 104 107 109 112 110 107 109 110 108 107 106 105 105 104 106 111 109 105 104
147 169 259 276 292 56 287 88 74 115 105 120 132 113 72 117 123 112 103 125 140 144 145 153 134 81 72 62 26 69 96 111 136 135 139 145 141 144 147 146 143 139 138 137 139 137 136 140 139 138 136 133 132 131 128 125 129 138 139 145 153 141 125 117 117 117 118 120 121 120 118 117 116 115 111 109 106 105 107 107 110 112 109 107 109 109 106 106 105 104 106 106 108 113 108 104 103
151 177 226 230 314 7 235 123 126 87 71 355 118 116 118 128 130 117 111 119 132 138 142 150 124 117 101 63 44 58 76 119 137 152 141 139 144 145 146 145 142 138 136 137 138 133 135 136 135 139 138 137 140 144 142 138 142 152 152 149 149 137 125 122 122 121 123 124 123 122 121 122 120 119 116 114 112 110 109 109 110 110 109 109 109 108 105 104 103 101 102 103 105 106 102 98 97
162 186 216 223 215 210 179 108 114 88 76 330 85 122 133 136 132 125 127 126 128 132 133 136 128 120 96 86 90 58 32 113 132 147 144 141 144 146 146 143 139 136 135 136 134 131 134 133 134 133 133 138 143 148 142 137 146 154 152 145 140 134 127 125 123 122 125 125 124 123 122 123 120 121 120 116 114 110 110 111 110 109 110 112 109 105 103 102 101 100 99 100 102 102 97 93 92
173 299 326 256 176 101 93 100 99 75 91 1 63 111 134 142 140 136 142 140 143 151 142 141 144 119 89 88 102 56 43 100 129 136 140 141 144 147 147 143 137 135 135 133 132 130 131 131 131 129 131 136 141 146 132 132 145 146 148 147 139 136 131 126 121 121 126 126 125 125 123 122 119 120 120 115 111 109 110 111 111 111 111 110 107 104 102 100 101 101 99 100 102 99 96 95 92
192 297 278 245 107 99 103 104 106 93 80 98 89 101 133 144 142 140 145 136 136 144 138 148 180 125 113 94 93 75 66 106 125 131 139 142 144 149 147 145 139 136 135 132 133 128 128 130 131 131 131 136 147 150 136 135 149 147 147 146 141 141 136 127 121 120 124 127 126 124 124 122 121 122 120 115 111 112 111 110 111 111 112 109 105 103 102 101 101 101 100 100 99 96 95 95 91
223 297 292 227 126 118 122 119 121 114 80 78 85 116 141 152 132 130 139 132 137 137 127 125 92 115 121 98 90 88 106 122 127 133 142 143 144 147 146 146 142 138 135 132 132 128 128 128 124 119 122 150 156 145 138 140 154 157 149 141 145 149 139 130 125 120 118 122 120 119 121 122 126 127 124 119 114 114 111 110 110 109 109 107 105 103 103 103 100 100 100 99 98 96 94 93 89
280 64 295 197 130 134 135 132 131 113 97 92 95 116 142 150 125 116 123 122 131 133 134 139 114 120 113 97 94 97 127 135 132 138 144 144 144 145 144 145 143 139 135 134 132 126 124 119 112 116 143 167 139 124 140 150 160 167 158 147 152 154 140 132 127 120 114 108 106 108 115 121 128 131 128 124 119 116 115 116 113 110 108 108 109 107 106 104 101 101 100 97 95 95 94 92 89
320 22 318 123 114 134 131 137 139 121 116 131 132 130 140 147 136 134 135 130 139 139 138 167 142 133 115 102 108 121 139 143 137 140 144 144 143 143 142 141 141 139 135 134 130 123 119 113 117 142 170 160 124 129 166 167 164 177 173 158 155 155 142 134 124 116 117 114 114 118 121 125 132 133 129 126 122 120 122 122 117 113 112 112 113 112 109 106 103 103 99 96 92 91 92 92 89
351 4 1 98 91 127 134 140 139 133 138 145 138 127 148 156 155 147 135 128 146 146 130 137 145 135 108 107 118 139 148 147 143 142 143 143 140 140 139 138 139 139 137 135 130 125 117 113 130 166 182 165 141 142 180 174 162 170 171 162 162 160 148 131 118 121 135 133 134 135 131 133 137 134 131 128 124 125 128 127 121 116 114 113 112 109 107 106 106 106 103 100 97 94 93 89 84
358 345 357 95 117 136 145 145 147 159 152 141 122 129 153 149 147 146 133 133 141 130 107 120 136 122 116 130 141 158 155 151 148 143 142 139 137 136 136 138 138 139 139 134 129 126 118 114 134 177 190 172 149 157 175 164 161 165 160 164 165 160 151 128 118 132 148 139 136 135 132 134 135 137 136 132 131 132 132 130 125 119 116 113 109 106 106 108 109 111 110 106 103 100 95 88 80
339 320 29 113 138 148 176 162 152 174 155 148 151 146 132 67 128 138 124 135 122 107 113 119 130 113 150 165 164 162 154 152 149 142 140 135 134 134 134 138 138 140 137 130 127 122 117 113 126 180 184 141 152 181 172 150 158 166 161 165 163 157 145 127 126 138 147 139 134 134 134 133 134 140 140 140 139 134 132 129 125 120 115 110 107 106 108 110 110 115 118 114 109 104 98 90 81
344 278 8 121 153 165 183 165 160 176 157 150 150 147 116 94 136 118 8 112 118 126 123 125 128 1 171 165 143 148 150 149 148 142 137 133 133 132 135 139 137 138 132 129 126 121 119 115 127 185 170 124 160 181 157 146 153 164 167 159 157 151 128 127 136 136 141 143 137 137 138 137 138 140 141 146 141 131 129 127 123 118 112 110 110 107 106 107 111 119 124 124 123 117 105 93 81
232 256 1 102 163 188 177 179 181 155 144 145 156 162 134 127 139 78 77 106 121 121 79 91 78 74 129 124 129 141 146 146 147 142 137 137 138 138 139 140 140 138 133 132 128 123 121 118 136 197 170 135 181 188 159 156 148 158 167 154 155 141 124 139 143 133 140 143 140 141 142 142 138 140 143 140 133 127 126 123 121 115 111 111 108 104 103 104 109 118 125 131 138 131 108 88 70
239 274 39 83 155 154 186 200 189 123 153 155 166 169 146 144 143 124 114 97 110 104 78 90 82 83 106 118 130 138 144 147 149 146 144 146 146 146 145 146 147 143 138 135 128 127 124 123 141 188 180 154 188 199 171 164 147 153 160 151 146 129 132 152 142 137 145 143 143 144 144 145 139 139 137 128 127 127 123 123 120 114 111 108 102 103 105 106 107 114 125 131 135 126 105 75 43
222 38 29 72 151 113 352 247 198 259 163 151 163 173 157 150 142 149 142 128 135 116 105 108 97 104 116 125 134 140 146 150 153 151 150 153 154 152 150 152 151 146 142 136 130 132 129 129 142 166 175 162 177 193 173 159 146 150 150 144 141 132 141 153 141 142 149 144 144 146 147 148 141 137 132 126 127 126 123 122 117 110 108 106 107 108 103 103 101 107 119 127 125 112 91 48 22
195 238 268 81 345 311 56 269 257 284 162 155 159 167 159 149 143 158 147 143 162 149 146 144 128 132 134 136 140 145 151 154 156 156 155 157 159 157 152 153 153 149 143 136 134 136 135 135 144 164 176 158 163 177 157 142 142 146 143 141 145 142 145 151 150 151 152 148 146 150 153 151 145 139 134 127 123 124 127 122 112 109 111 112 113 102 92 92 88 91 101 109 108 88 53 20 4
182 209 291 79 342 299 103 111 257 159 174 166 149 150 152 149 150 152 143 145 186 191 179 165 151 148 145 145 147 151 155 157 161 162 162 164 164 160 153 151 150 147 143 140 138 137 141 143 148 164 177 161 153 158 139 131 135 142 145 143 146 146 144 151 160 159 156 154 150 151 154 152 147 141 134 128 126 130 128 120 116 117 117 113 105 94 88 87 83 83 83 80 75 51 25 359 346
182 141 25 38 285 282 68 62 215 152 164 163 149 152 147 141 147 156 159 163 190 194 193 170 154 153 151 150 150 155 160 162 166 167 169 169 168 165 156 151 148 147 146 146 145 143 146 147 151 162 174 160 149 153 137 126 125 137 145 139 140 145 146 151 157 158 156 156 152 149 152 152 148 141 134 131 132 130 119 115 119 120 113 103 96 92 89 86 85 81 76 69 55 35 14 349 340
225 140 108 18 288 281 336 96 205 175 171 168 161 145 127 138 147 169 177 172 94 147 166 160 151 153 151 148 150 156 163 167 169 170 173 174 175 173 165 159 154 152 150 149 149 148 146 146 152 162 170 156 145 149 135 127 125 132 141 138 141 145 144 146 149 150 153 152 148 149 151 151 148 141 136 135 133 125 116 119 119 111 104 97 95 92 88 86 84 79 71 56 37 21 6 352 342
239 207 132 281 286 288 295 243 217 197 179 149 131 118 125 150 146 175 188 54 97 127 136 146 145 148 149 149 153 157 163 168 170 172 176 178 178 175 167 162 159 155 151 151 151 149 146 147 153 161 167 157 144 140 126 124 123 127 134 135 139 141 139 140 140 141 146 146 145 150 152 150 148 142 139 138 132 126 121 120 114 105 101 97 96 92 87 83 77 67 56 38 22 17 6 357 352
225 215 85 312 295 296 292 245 224 209 181 110 108 107 93 110 129 164 174 106 129 131 134 142 143 148 153 155 156 158 162 168 172 175 178 179 174 170 169 165 162 160 155 154 154 151 148 148 153 156 160 160 146 135 120 114 118 124 127 125 130 135 135 135 137 138 141 142 144 150 151 149 145 142 141 139 133 128 122 117 110 105 102 98 94 88 81 74 61 47 39 26 16 18 10 0 359
200 167 95 71 349 330 318 259 228 212 184 141 135 121 84 21 109 157 155 138 141 138 141 145 150 154 158 161 159 160 164 170 176 179 180 178 174 177 176 170 167 164 160 158 155 153 151 149 151 153 156 161 149 134 125 117 119 124 124 125 130 131 131 133 134 136 138 140 143 147 149 146 143 141 141 138 133 126 119 115 111 106 100 96 89 76 70 60 46 36 28 22 18 16 9 2 1
130 128 104 90 45 21 354 311 237 214 190 165 153 133 105 10 278 172 153 158 149 144 148 151 158 161 163 166 164 164 167 174 178 180 179 177 183 188 183 178 174 167 163 162 159 154 152 149 151 154 157 163 155 138 131 124 123 127 127 129 132 132 131 131 131 132 136 138 142 144 145 146 144 142 140 137 130 123 119 116 112 107 98 91 79 62 56 50 43 36 27 25 19 12 6 2 1
120 129 105 97 66 45 27 25 56 204 178 163 148 122 80 358 301 155 146 164 159 152 155 159 162 166 168 168 167 169 171 175 177 179 184 188 192 194 190 184 176 169 168 167 163 157 153 152 154 158 164 169 162 151 141 132 129 132 131 131 134 136 134 132 131 132 134 137 141 142 145 149 147 142 136 132 126 122 121 118 114 109 98 85 72 61 55 49 43 36 28 24 15 6 2 1 1
133 156 110 113 89 50 38 42 53 72 109 131 133 120 125 235 333 100 145 162 164 158 160 165 166 168 171 171 170 175 176 174 177 185 194 200 200 194 192 186 176 169 169 170 166 161 157 156 158 161 169 172 167 161 151 141 137 136 133 134 137 137 136 135 133 133 135 138 141 144 147 148 147 141 133 130 128 126 124 120 116 108 95 79 71 69 61 51 42 32 22 15 7 1 357 359 0
149 180 198 135 121 47 33 38 74 86 119 118 109 128 181 208 197 98 153 162 162 164 167 170 169 170 176 177 177 181 181 177 183 194 201 206 205 198 192 182 177 170 165 169 170 166 160 158 159 163 169 170 168 165 159 151 144 141 138 138 142 141 139 139 136 135 136 139 143 145 147 147 144 139 135 133 131 129 126 122 116 102 91 82 75 73 63 50 39 26 14 6 358 355 355 358 0
158 220 220 344 335 46 37 46 92 101 136 152 268 143 164 200 199 143 164 167 167 170 171 175 174 173 180 182 184 185 185 188 194 199 205 207 206 202 193 180 176 172 166 169 172 170 164 162 160 162 166 166 167 167 164 159 152 148 144 143 146 145 144 143 140 138 138 140 142 145 146 144 143 140 139 137 134 132 127 121 114 98 94 90 77 70 61 45 29 17 9 1 352 353 356 358 359
358 310 203 26 10 66 54 50 69 98 147 198 296 4 92 186 183 152 172 175 174 176 173 178 180 178 184 187 188 188 189 195 200 204 207 208 207 205 196 181 176 174 171 169 168 171 169 167 164 162 164 164 165 168 166 160 155 154 149 148 150 149 149 149 146 143 141 142 142 145 145 143 144 143 142 140 136 133 129 121 111 105 103 91 72 63 55 35 19 10 4 358 353 355 355 357 358
18 345 16 38 27 57 71 66 56 82 142 178 332 7 53 110 149 150 178 184 180 180 177 181 184 182 186 191 192 191 191 195 203 208 208 207 209 207 198 186 178 174 174 172 169 172 173 170 168 167 167 165 164 167 167 161 158 157 153 153 152 152 153 153 152 149 147 147 147 149 148 146 147 146 144 141 137 136 135 126 112 111 105 86 64 52 40 19 10 4 357 357 358 356 354 355 354
172 52 41 44 37 37 60 88 80 69 124 143 17 331 3 3 346 165 178 189 188 186 182 183 184 184 188 193 197 196 195 198 204 208 207 207 208 206 202 191 179 173 173 175 174 174 174 172 170 172 173 169 165 167 167 163 160 158 158 160 158 158 160 159 158 156 155 155 155 156 153 151 151 150 147 144 143 145 145 139 125 116 106 82 52 35 18 3 1 358 353 359 3 357 352 351 348
284 195 118 98 92 92 40 72 116 110 93 59 349 269 302 1 40 173 183 193 196 194 188 186 186 186 188 192 199 201 202 205 207 208 206 206 207 204 201 191 180 173 171 173 175 176 176 175 175 178 181 177 170 166 166 166 164 162 163 164 164 166 168 169 168 166 166 164 164 164 159 156 156 153 152 151 153 157 158 153 141 128 122 81 35 15 357 350 352 352 351 360 6 357 351 349 347
347 201 165 96 93 93 80 86 138 164 134 105 275 247 263 321 105 173 187 191 205 205 192 190 191 188 190 194 200 202 207 212 210 207 203 203 205 200 195 188 180 174 170 171 174 179 183 183 182 182 185 184 177 168 166 168 169 168 168 169 171 176 176 176 176 174 173 173 172 169 164 161 159 156 155 158 162 167 171 170 165 172 164 74 13 347 335 341 347 351 354 4 8 359 353 354 352
29 182 197 202 332 35 74 120 136 155 160 199 239 257 262 257 194 188 188 190 206 208 198 196 196 194 194 197 202 202 209 217 211 205 201 201 201 195 188 182 179 176 173 174 175 180 187 189 188 186 188 189 182 175 171 170 172 173 173 175 177 180 181 181 182 183 182 180 175 171 169 167 163 160 158 159 165 174 186 201 224 224 218 338 349 333 330 339 352 354 357 6 7 3 360 357 358
333 236 227 243 222 44 39 89 131 187 235 212 214 260 254 237 229 205 193 198 206 206 201 200 199 201 201 201 204 204 209 218 213 204 198 198 195 187 184 184 184 181 177 177 176 180 186 191 193 191 192 193 189 185 181 175 174 175 175 179 182 181 182 184 186 189 188 185 179 175 176 175 171 167 162 162 172 186 210 230 241 235 251 317 330 326 328 337 352 358 2 9 3 5 7 2 8
254 259 247 263 140 127 86 82 99 169 253 234 219 252 259 249 243 221 207 208 212 210 205 202 200 201 203 204 205 204 207 213 215 210 198 193 188 183 185 189 190 185 178 178 178 181 185 190 197 197 195 196 195 193 190 185 181 179 178 180 181 178 182 186 187 189 190 189 185 183 184 184 183 178 172 177 189 215 230 227 235 237 278 313 315 312 324 336 350 358 7 15 4 2 12 11 19
220 225 255 243 141 198 119 105 121 89 1 274 235 251 266 256 244 239 222 212 220 223 215 213 208 206 206 206 207 206 207 209 213 213 203 192 183 182 188 190 188 183 180 182 183 184 186 192 200 200 197 199 199 198 196 193 190 186 185 185 183 181 187 191 190 192 194 195 192 190 191 192 193 190 186 197 217 236 225 209 221 247 291 305 301 304 324 336 347 359 7 22 17 5 10 14 22
223 218 241 220 167 209 70 123 151 108 49 251 232 264 268 229 223 232 215 202 219 226 220 221 215 215 215 211 211 212 211 210 211 212 203 191 184 185 189 187 186 186 188 191 190 188 188 195 202 200 197 199 200 199 197 194 191 188 187 185 185 188 191 195 198 200 200 200 200 198 198 200 200 202 206 218 232 231 204 196 224 261 291 293 287 305 326 324 337 0 8 24 25 18 15 7 25
239 217 224 218 193 173 121 132 166 210 311 211 230 273 279 190 215 223 194 189 215 216 217 223 216 210 214 215 215 215 216 213 213 213 201 192 190 187 185 184 187 192 196 197 194 192 191 196 202 202 198 199 199 199 197 194 190 188 186 181 181 185 188 196 202 203 203 203 204 204 206 208 208 211 219 227 233 223 200 203 234 258 278 277 273 284 301 309 323 353 6 18 19 25 24 7 22
248 224 206 197 190 155 130 140 191 284 324 210 219 256 291 243 218 213 192 195 212 211 215 223 217 204 207 214 215 213 215 213 213 215 204 197 194 187 185 186 191 196 198 196 193 195 197 200 204 204 201 199 197 198 198 196 193 193 192 188 186 188 190 202 207 207 208 210 212 214 217 221 221 220 224 229 232 227 219 221 235 251 262 263 267 269 269 275 292 323 341 5 1 12 23 15 14
255 91 131 155 158 136 131 142 169 232 309 240 207 235 281 283 253 195 192 198 211 215 218 222 216 207 206 211 215 213 214 212 210 209 204 201 196 191 191 191 194 198 194 191 194 198 202 206 207 205 203 201 198 199 198 198 198 199 199 198 197 198 199 207 212 213 215 218 221 224 225 228 231 229 229 232 234 235 236 236 240 246 250 254 257 253 247 250 260 281 291 323 347 351 7 17 16
59 102 106 119 129 123 128 139 138 149 259 249 196 206 268 269 276 107 188 203 215 219 220 221 215 207 204 206 212 213 212 211 208 206 204 201 198 197 198 195 195 195 190 193 197 198 202 207 208 207 206 204 201 201 200 201 203 205 206 206 207 210 211 213 215 216 219 221 224 228 229 230 234 234 233 233 234 237 242 245 247 247 245 247 249 246 241 241 246 261 278 287 313 330 336 359 13
103 108 98 100 107 106 114 132 146 173 257 258 171 176 243 282 273 114 185 209 228 231 226 225 219 211 205 200 206 209 209 208 208 209 206 202 200 200 200 197 194 192 191 194 194 194 199 205 207 208 208 206 204 204 203 203 205 208 210 213 217 219 220 221 221 222 223 224 226 230 233 233 233 233 232 232 234 238 243 246 248 248 248 246 244 244 241 240 244 256 270 267 274 297 308 324 339
129 114 101 101 94 87 90 83 140 205 257 280 165 182 208 283 344 62 154 246 285 280 254 233 221 216 211 202 202 205 205 204 204 208 206 204 204 201 199 196 193 191 189 188 189 190 195 201 206 208 209 209 207 206 206 205 205 208 212 217 222 226 227 228 228 228 228 229 230 232 233 233 233 232 231 232 234 236 241 245 247 248 251 249 245 246 246 246 250 258 262 260 264 277 281 290 295
142 127 125 118 80 71 97 99 216 243 277 29 151 187 203 239 293 32 354 326 327 315 292 256 226 216 212 205 200 199 200 199 197 200 201 200 200 196 195 195 191 188 185 185 189 189 191 199 204 206 209 210 210 209 208 207 207 208 212 217 223 227 230 233 234 234 233 232 231 231 232 231 232 233 232 234 235 237 241 244 247 250 251 250 249 249 248 247 250 258 261 260 263 270 270 274 278
181 166 163 155 83 96 120 217 252 264 298 34 86 183 209 250 274 18 358 341 335 323 306 282 244 222 210 201 197 195 195 196 193 195 195 193 194 192 192 191 185 184 187 188 190 189 190 197 203 205 208 210 211 210 209 209 209 209 211 216 221 226 229 234 239 239 238 235 232 231 232 231 232 234 234 235 235 236 239 243 245 247 245 247 251 251 249 248 250 255 258 260 262 264 263 264 268
203 183 182 188 164 152 156 160 282 281 304 13 322 190 228 262 144 22 357 346 338 329 316 291 251 226 210 196 194 192 191 193 191 193 194 190 190 191 191 187 184 188 192 191 190 190 189 193 201 205 207 210 212 212 211 211 212 212 213 215 219 222 225 232 237 238 239 238 233 232 233 233 234 235 236 238 237 234 236 242 245 243 239 244 252 252 249 249 250 251 253 258 261 260 259 261 263
199 202 210 209 200 215 200 167 197 258 309 341 273 187 256 283 116 26 357 353 348 343 336 317 252 223 206 187 186 188 189 191 189 191 196 193 188 188 187 184 186 191 192 191 191 190 188 192 199 204 206 209 211 213 213 213 214 215 216 217 218 219 222 228 233 236 239 239 236 235 237 236 237 239 242 245 243 237 238 243 244 238 236 244 255 255 249 246 246 249 251 256 262 263 264 264 260
155 189 219 222 230 230 144 118 129 135 256 291 217 208 296 61 116 5 357 0 2 358 355 355 296 213 185 168 178 182 183 187 189 194 198 195 189 187 187 187 190 191 190 191 191 190 191 194 200 204 207 209 210 212 214 215 216 217 218 218 218 219 221 224 229 234 236 237 236 238 241 242 241 243 247 249 245 240 241 243 241 235 236 246 254 255 250 245 245 248 251 255 260 262 265 265 260
163 173 196 159 351 188 120 109 93 102 237 271 199 246 313 95 148 0 358 1 8 6 4 12 10 188 173 171 176 173 178 181 182 192 198 194 190 189 190 190 191 192 191 191 192 193 196 197 200 203 205 207 210 212 214 215 216 218 220 220 219 219 220 221 225 230 232 233 237 240 242 245 245 246 248 246 244 244 244 242 238 234 238 248 253 253 250 248 248 248 251 256 258 257 260 260 256
198 150 127 122 110 60 91 118 85 95 257 278 253 268 333 356 310 355 356 357 6 7 7 14 20 57 172 182 176 168 174 178 179 190 195 193 191 193 194 195 194 193 193 195 195 197 199 200 202 201 201 205 209 211 212 213 215 217 219 221 220 220 219 218 221 225 227 231 237 241 242 243 246 249 249 247 245 249 251 246 238 234 240 250 252 251 251 251 251 250 252 257 259 258 260 260 257
46 95 78 176 193 137 112 165 150 145 238 289 280 276 3 14 340 339 344 353 360 3 10 14 20 29 37 105 148 152 155 170 196 204 202 197 195 194 194 196 195 193 195 197 198 198 199 202 203 202 204 207 209 208 208 211 214 215 217 220 221 221 220 219 222 226 228 230 235 239 242 244 247 250 251 250 247 250 254 249 239 236 242 250 251 251 252 252 252 252 254 256 258 260 261 262 261
75 103 61 15 333 187 136 142 136 136 154 287 284 274 179 67 340 324 333 355 356 355 10 16 21 27 27 46 90 117 124 131 117 99 137 237 218 208 200 196 195 194 196 198 198 198 200 201 202 203 205 206 205 204 205 209 212 212 216 219 221 222 222 221 224 228 230 231 234 237 239 242 245 249 250 249 248 249 250 247 239 235 239 245 248 248 248 250 252 254 256 257 256 261 263 262 261
72 78 54 44 37 310 151 143 116 128 147 190 270 273 226 91 338 322 339 358 355 350 360 7 13 8 357 7 79 120 125 132 131 137 140 82 43 228 211 200 196 194 196 198 197 198 200 199 201 203 204 204 204 203 205 209 210 211 215 220 221 222 222 221 223 227 229 231 234 236 237 238 241 246 247 248 249 249 249 246 239 235 238 242 247 249 248 250 254 257 261 261 259 261 264 263 262
38 67 63 57 66 136 192 190 148 125 157 155 251 270 253 87 330 333 349 353 2 3 358 354 355 344 333 334 343 62 136 155 153 156 162 144 143 176 184 193 197 194 193 197 198 197 199 200 201 202 205 208 207 205 207 210 210 211 215 219 220 220 221 220 220 223 225 227 231 235 238 237 236 241 245 247 248 247 247 247 242 240 243 245 250 254 252 249 252 257 260 259 256 258 261 262 263